Weather History for KPVU - October, 2011

Change the Weather History Date:

Tuesday, October 25, 2011

  Actual Average Record
Temperature  
Mean Temperature 50 °F -  
Max Temperature 55 °F 54 °F 75 °F (2007)
Min Temperature 44 °F 33 °F 26 °F (1984)
Degree Days  
Heating Degree Days 16    
Moisture  
Dew Point 36 °F    
Average Humidity 59    
Maximum Humidity 94    
Minimum Humidity 46    
Precipitation  
Precipitation 0.00 in - - ()
Sea Level Pressure  
Sea Level Pressure 30.06 in    
Wind  
Wind Speed 11 mph (NW)    
Max Wind Speed 22 mph    
Max Gust Speed 23 mph    
Visibility 12 miles    
Events      
Averages and records for this station are not official NWS values.
T = Trace of Precipitation, MM = Missing Value Source: NWS Daily Summary

Daily Weather History Graph

Daily Weather History Graph

Search for Another Location

Airport or City:

Trip Planner

Search our weather history database for the weather conditions in past years. The results will help you decide how hot, cold, wet, or windy it might be!

Date:

Astronomy

Oct. 25, 2011 Rise Set
Actual Time 7:48 AM MDT 6:33 PM MDT
Civil Twilight 7:20 AM MDT 7:00 PM MDT
Nautical Twilight 6:48 AM MDT 7:32 PM MDT
Astronomical Twilight 6:17 AM MDT 8:04 PM MDT
Moon 6:25 AM MDT 5:37 PM MDT
Length of Visible Light 11h 40m
Length of Day
10h 44m
Waning Crescent, 2% of the Moon is Illuminated
Oct 25
Waning Crescent
Oct 26
New
Nov 2
First Quarter
Nov 10
Full
Nov 18
Last Quarter

Hourly Weather History & Observations

Time (MDT) Temp. Windchill Dew Point Humidity Pressure Visibility Wind Dir Wind Speed Gust Speed Precip Events Conditions
12:35 AM 55.4 °F - 42.8 °F 63% 30.00 in 10.0 mi NW 11.5 mph - N/A   Mostly Cloudy
12:55 AM 53.6 °F - 42.8 °F 67% 30.00 in 10.0 mi Calm Calm - N/A   Overcast
1:15 AM 53.6 °F - 42.8 °F 67% 30.01 in 10.0 mi ENE 4.6 mph - N/A   Overcast
1:35 AM 51.8 °F - 41.0 °F 67% 30.01 in 10.0 mi NNW 3.5 mph - N/A   Scattered Clouds
1:55 AM 50.0 °F - 42.8 °F 76% 30.02 in 10.0 mi North 5.8 mph - N/A   Scattered Clouds
2:15 AM 53.6 °F - 39.2 °F 58% 30.03 in 10.0 mi North 10.4 mph 16.1 mph N/A   Partly Cloudy
2:35 AM 51.8 °F - 41.0 °F 67% 30.03 in 10.0 mi NW 17.3 mph 20.7 mph N/A   Clear
2:55 AM 53.6 °F - 41.0 °F 62% 30.03 in 10.0 mi NW 12.7 mph - N/A   Scattered Clouds
3:15 AM 53.6 °F - 42.8 °F 67% 30.04 in 10.0 mi NW 15.0 mph - N/A   Partly Cloudy
3:35 AM 51.8 °F - 41.0 °F 67% 30.05 in 10.0 mi NW 12.7 mph - N/A   Partly Cloudy
3:55 AM 51.8 °F - 39.2 °F 62% 30.05 in 10.0 mi NW 15.0 mph 18.4 mph N/A   Mostly Cloudy
4:15 AM 51.8 °F - 39.2 °F 62% 30.05 in 10.0 mi NW 16.1 mph - N/A   Scattered Clouds
4:35 AM 51.8 °F - 39.2 °F 62% 30.04 in 10.0 mi NW 17.3 mph - N/A   Clear
6:15 AM 51.8 °F - 37.4 °F 58% 30.05 in 10.0 mi NW 11.5 mph - N/A   Overcast
6:35 AM 51.8 °F - 37.4 °F 58% 30.05 in 10.0 mi NW 15.0 mph - N/A   Mostly Cloudy
6:55 AM 50.0 °F - 37.4 °F 62% 30.05 in 10.0 mi NW 16.1 mph - N/A   Mostly Cloudy
7:57 AM 48.2 °F - 39.2 °F 71% 30.06 in 15.0 mi West 3.5 mph - N/A   Mostly Cloudy
8:54 AM 48.2 °F - 37.4 °F 66% 30.07 in 15.0 mi WNW 21.9 mph - N/A   Mostly Cloudy
9:47 AM 48.2 °F - 35.6 °F 62% 30.08 in 15.0 mi WNW 13.8 mph - N/A   Mostly Cloudy
10:47 AM 50.0 °F - 33.8 °F 54% 30.10 in 15.0 mi WNW 11.5 mph - N/A   Mostly Cloudy
11:56 AM 51.8 °F - 35.6 °F 54% 30.10 in 15.0 mi WNW 10.4 mph - N/A   Mostly Cloudy
12:52 PM 53.6 °F - 35.6 °F 51% 30.09 in 15.0 mi WNW 3.5 mph - N/A   Mostly Cloudy
1:55 PM 51.8 °F - 50.0 °F 94% 30.07 in - NW 18.4 mph - N/A   Overcast
2:51 PM 51.8 °F - 33.8 °F 50% 30.07 in 15.0 mi WNW 16.1 mph - N/A   Overcast
3:52 PM 51.8 °F - 33.8 °F 50% 30.06 in 15.0 mi WNW 15.0 mph - N/A   Overcast
4:55 PM 48.2 °F - 32.0 °F 54% 30.06 in 15.0 mi NW 17.3 mph 23.0 mph N/A   Overcast
5:47 PM 48.2 °F - 30.2 °F 50% 30.07 in 15.0 mi NW 13.8 mph - N/A   Overcast
6:47 PM 48.2 °F - 28.4 °F 46% 30.08 in 15.0 mi NW 9.2 mph - N/A   Overcast
7:47 PM 46.4 °F 39.8 °F 28.4 °F 50% 30.09 in 10.0 mi WNW 16.1 mph 20.7 mph N/A   Overcast
8:47 PM 44.6 °F 38.1 °F 26.6 °F 49% 30.09 in 10.0 mi WNW 13.8 mph - N/A   Overcast
9:35 PM 46.4 °F 40.4 °F 26.6 °F 46% 30.08 in 10.0 mi NW 13.8 mph - N/A   Mostly Cloudy
10:15 PM 46.4 °F 40.4 °F 26.6 °F 46% 30.10 in 10.0 mi NW 13.8 mph 17.3 mph N/A   Mostly Cloudy
10:35 PM 44.6 °F 38.4 °F 28.4 °F 53% 30.10 in 10.0 mi NW 12.7 mph - N/A   Mostly Cloudy
10:55 PM 44.6 °F 39.7 °F 28.4 °F 53% 30.11 in 10.0 mi NW 9.2 mph - N/A   Partly Cloudy
11:15 PM 44.6 °F 40.2 °F 28.4 °F 53% 30.11 in 10.0 mi NNW 8.1 mph - N/A   Scattered Clouds
11:35 PM 44.6 °F 38.8 °F 26.6 °F 49% 30.11 in 10.0 mi NNW 11.5 mph - N/A   Mostly Cloudy
11:55 PM 44.6 °F 37.4 °F 28.4 °F 53% 30.11 in 10.0 mi NW 16.1 mph - N/A   Mostly Cloudy